[[{"header":{"parameterUnit":"m.s-1","parameterCategory":1,"la1":30.2991,"la2":30.254,"lo1":-89.0895,"lo2":-89.0444,"dy":0.0017,"dx":0.0017,"nx":28,"ny":28,"refTime":"2025-11-04T09:00:00:Z","depth":0,"parameterNumber":2,"parameterNumberName":"U-component_of_WINDS"},"data":[0,0,0,0,0,0,0,0,0,0,0,0,0,0,0,0,0,0,0,0,0,0,0,0,0,0,0,0,0,0,0,0,0,0,0,0,0,0,0,0,0,0,0,0,0,0,0,0,0,0,0,0,0,0,0,0,0,0,-2.3536,-2.3537,0,-2.3592,-2.3593,-2.3594,-2.35,-2.3497,-2.3494,-2.3491,-2.3549,-2.3554,-2.3558,0,0,0,0,0,0,0,0,0,0,0,0,0,-2.3347,-2.3351,-2.3536,-2.3537,-2.3537,-2.3592,-2.3593,-2.3594,-2.3501,-2.3497,-2.3493,-2.3489,-2.3548,-2.3553,-2.3558,0,0,0,0,0,0,0,0,0,0,0,0,0,-2.3419,-2.3353,-2.3536,-2.3497,-2.3495,-2.3592,-2.3593,-2.3594,-2.3501,-2.3497,-2.3492,-2.3487,-2.3546,-2.3553,-2.3559,-2.3697,0,0,-2.358,-2.3583,0,0,0,0,0,0,0,0,-2.3415,-2.3426,-2.3502,-2.35,-2.3497,-2.3534,-2.3548,-2.3629,-2.3503,-2.3499,-2.3491,-2.3485,-2.3548,-2.3554,-2.3576,-2.37,-2.3702,-2.3581,-2.3585,-2.3588,-2.359,0,0,0,0,0,0,0,-2.341,-2.3423,-2.3558,-2.3504,-2.3501,-2.3477,-2.3482,-2.3563,-2.355,-2.3499,-2.3492,-2.35,-2.3546,-2.3569,-2.3576,-2.3703,-2.358,-2.3586,-2.3591,-2.3593,-2.3943,-2.3948,0,0,0,0,0,0,-2.341,-2.342,-2.3556,-2.356,-2.3444,-2.3485,-2.349,-2.3527,-2.3549,-2.3547,-2.3504,-2.3496,-2.356,-2.3568,-2.3578,-2.3741,-2.3588,-2.3594,-2.3598,-2.3938,-2.3945,-2.395,0,0,0,0,0,0,-2.3406,-2.3423,-2.3554,-2.3488,-2.3503,-2.3493,-2.3535,-2.3531,-2.3554,-2.3553,-2.355,-2.3531,-2.3557,-2.3568,-2.3668,-2.3742,-2.3597,-2.3603,-2.3932,-2.394,-2.3947,-2.4069,0,0,0,0,0,0,-2.3401,-2.3422,-2.3475,-2.349,-2.3507,-2.3644,-2.354,-2.3535,-2.3566,-2.3555,-2.3577,-2.3576,-2.3554,-2.3659,-2.3675,-2.3749,-2.3609,-2.3925,-2.3936,-2.3945,-2.4059,-2.408,-2.4099,0,0,0,0,0,-2.3395,-2.3507,-2.3478,-2.3495,-2.3572,-2.3648,-2.3658,-2.3631,-2.3572,-2.3625,-2.3624,-2.3575,-2.3731,-2.367,-2.3687,-2.3764,-2.3921,-2.3933,-2.3944,-2.405,-2.4076,-2.4099,0,0,0,0,0,0,-2.3502,-2.3508,-2.3476,-2.3597,-2.3623,-2.3632,-2.3698,-2.3659,-2.3703,-2.3691,-2.3655,-2.366,-2.3768,-2.3775,-2.3707,-2.3899,-2.3816,-2.3832,-2.389,-2.3915,-2.3935,-2.3932,-2.3614,0,0,0,0,0,-2.3539,-2.36,-2.3603,-2.3709,-2.3723,-2.3709,-2.3741,-2.3717,-2.3743,-2.3753,-2.3759,-2.3786,-2.3841,-2.3878,-2.3929,-2.4058,-2.4062,-2.412,-2.414,-2.4157,-2.4172,-2.4241,-2.4268,-2.3989,-2.3989,-2.3988,0,0,-2.3617,-2.3628,-2.3669,-2.373,-2.3748,-2.3812,-2.3719,-2.3791,-2.3838,-2.3764,-2.3859,-2.3865,-2.3892,-2.4008,-2.4059,-2.4018,-2.4249,-2.4172,-2.4185,-2.4191,-2.4256,-2.4283,-2.4306,-2.3997,-2.3995,-2.3994,0,0,-2.3793,-2.3807,-2.3897,-2.3916,-2.3944,-2.3933,-2.3955,-2.397,-2.3971,-2.4065,-2.4011,-2.4067,-2.4162,-2.4184,-2.4208,-2.4391,-2.4348,-2.4408,-2.4514,-2.4583,-2.4605,-2.4624,-2.469,-2.4715,-2.4422,-2.4423,-2.4423,0,-2.3887,-2.3982,-2.3948,-2.4025,-2.4053,-2.3988,-2.4079,-2.4099,-2.4142,-2.4164,-2.4116,-2.4234,-2.4248,-2.4368,-2.4413,-2.4434,-2.4458,-2.4407,-2.4604,-2.4623,-2.4641,-2.4704,-2.4729,-2.443,-2.4429,-2.4428,-2.4428,0,-2.4096,-2.4163,-2.4232,-2.4275,-2.4311,-2.4395,-2.4374,-2.4414,-2.4387,-2.4382,-2.4479,-2.4492,-2.4545,-2.4571,-2.4545,-2.4688,-2.4661,-2.461,-2.4526,-2.4675,-2.4734,-2.4757,-2.444,-2.4438,-2.4436,-2.4434,0,0,-2.4343,-2.4365,-2.4392,-2.441,-2.4435,-2.4486,-2.4566,-2.4617,-2.4653,-2.4684,-2.475,-2.4832,-2.4784,-2.4811,-2.4787,-2.4847,-2.4992,-2.4787,-2.4787,-2.4826,-2.5151,-2.5191,-2.522,-2.4962,-2.4967,-2.497,-2.5149,0,-2.4519,-2.4657,-2.4629,-2.4765,-2.4826,-2.4765,-2.4834,-2.4857,-2.4854,-2.4905,-2.4901,-2.496,-2.4892,-2.4908,-2.4964,-2.4962,-2.5057,-2.4949,-2.5025,-2.5028,-2.5022,-2.525,-2.5293,-2.5461,-2.5172,-2.5175,-2.5178,0,-2.4743,-2.4783,-2.4925,-2.494,-2.4964,-2.5028,-2.5072,-2.5122,-2.5146,-2.5139,-2.5169,-2.5133,-2.5212,-2.5126,-2.5236,-2.5163,-2.5192,-2.5196,-2.5201,-2.5209,-2.5114,-2.5266,-2.5514,-2.554,-2.5214,-2.5211,-2.5208,0,-2.4911,-2.4999,-2.5096,-2.5113,-2.5133,-2.5179,-2.5189,-2.5208,-2.5241,-2.5279,-2.53,-2.5347,-2.5373,-2.5411,-2.5388,-2.5327,-2.5502,-2.5414,-2.5499,-2.55,-2.5541,-2.5539,-2.5799,-2.5557,-2.5556,-2.5556,-2.5555,0,-2.5111,-2.5201,-2.5171,-2.5231,-2.5329,-2.5296,-2.5394,-2.5397,-2.5415,-2.5474,-2.5422,-2.5479,-2.5445,-2.5499,-2.5482,-2.5575,-2.5587,-2.5584,-2.5579,-2.559,-2.5591,-2.561,-2.5599,-2.5562,-2.5561,-2.556,-2.5559,0,-2.5316,-2.5299,-2.5401,-2.5411,-2.5415,-2.5488,-2.5496,-2.5551,-2.5543,-2.5619,-2.5634,-2.5622,-2.5683,-2.5663,-2.5729,-2.5717,-2.5836,-2.5815,-2.5829,-2.5824,-2.5911,-2.5904,-2.6195,-2.6232,-2.5964,-2.5966,-2.5969,0,-2.5446,-2.5514,-2.5531,-2.5567,-2.5581,-2.5639,-2.5672,-2.564,-2.5677,-2.5709,-2.5761,-2.5817,-2.586,-2.596,-2.5957,-2.6006,-2.5987,-2.6085,-2.5994,-2.6003,-2.599,-2.5987,-2.5994,-2.6104,-2.6107,-2.611,-2.6112,0,-2.568,-2.5668,-2.5717,-2.5764,-2.5804,-2.5839,-2.5869,-2.5902,-2.5872,-2.5915,-2.5977,-2.601,-2.6077,-2.6133,-2.6178,-2.6188,-2.6146,-2.614,-2.6163,-2.6176,-2.6182,-2.6181,-2.588,-2.6134,-2.6132,-2.6131,-2.6129,-2.6128,-2.5852,-2.591,-2.5931,-2.5987,-2.6006,-2.6036,-2.6089,-2.6087,-2.6137,-2.6189,-2.6167,-2.6238,-2.626,-2.6316,-2.6332,-2.6387,-2.6349,-2.6381,-2.639,-2.6399,-2.6411,-2.6171,-2.6394,-2.6394,-2.6393,-2.6392,-2.6392,0,-2.6084,-2.6094,-2.6146,-2.6191,-2.6235,-2.619,-2.6221,-2.6262,-2.6325,-2.6348,-2.6392,-2.6462,-2.6517,-2.6517,-2.6568,-2.6612,-2.6594,-2.6626,-2.6624,-2.6627,-2.6441,-2.6417,-2.664,-2.664,-2.664,-2.664,-2.664,-2.664,-2.621,-2.6306,-2.6296,-2.64,-2.6409,-2.6479,-2.65,-2.6527,-2.6546,-2.6627,-2.6672,-2.6672,-2.6686,-2.6737,-2.6785,-2.6784,-2.6805,-2.6846,-2.6838,-2.6665,-2.664,-2.6617,-2.6594,-2.685,-2.6851,-2.7019,-2.702,-2.7022]},{"header":{"parameterUnit":"m.s-1","parameterCategory":1,"la1":30.2991,"la2":30.254,"lo1":-89.0895,"lo2":-89.0444,"dy":0.0017,"dx":0.0017,"nx":28,"ny":28,"refTime":"2025-11-04T09:00:00:Z","depth":0,"parameterNumber":3,"parameterNumberName":"V-component_of_WINDS"},"data":[0,0,0,0,0,0,0,0,0,0,0,0,0,0,0,0,0,0,0,0,0,0,0,0,0,0,0,0,0,0,0,0,0,0,0,0,0,0,0,0,0,0,0,0,0,0,0,0,0,0,0,0,0,0,0,0,0,0,-4.9118,-4.9119,0,-4.9199,-4.92,-4.9201,-4.9137,-4.9134,-4.9132,-4.9129,-4.9206,-4.9211,-4.9215,0,0,0,0,0,0,0,0,0,0,0,0,0,-4.89,-4.8905,-4.9118,-4.9119,-4.912,-4.9199,-4.92,-4.9201,-4.9138,-4.9134,-4.9131,-4.9128,-4.9205,-4.921,-4.9216,0,0,0,0,0,0,0,0,0,0,0,0,0,-4.8989,-4.8906,-4.9118,-4.9098,-4.9097,-4.9199,-4.92,-4.9202,-4.9138,-4.9134,-4.913,-4.9126,-4.9203,-4.921,-4.9216,-4.934,0,0,-4.9237,-4.924,0,0,0,0,0,0,0,0,-4.8984,-4.8997,-4.91,-4.9099,-4.9098,-4.9154,-4.9152,-4.9248,-4.9139,-4.9122,-4.9129,-4.9124,-4.9192,-4.9199,-4.9223,-4.9344,-4.9347,-4.9238,-4.9242,-4.9245,-4.9247,0,0,0,0,0,0,0,-4.8978,-4.8994,-4.915,-4.9101,-4.91,-4.9082,-4.9091,-4.917,-4.9179,-4.9123,-4.9119,-4.913,-4.919,-4.9217,-4.9225,-4.9348,-4.9238,-4.9244,-4.9248,-4.9251,-4.9573,-4.9577,0,0,0,0,0,0,-4.8975,-4.8989,-4.9147,-4.9152,-4.903,-4.909,-4.9099,-4.914,-4.9178,-4.918,-4.9133,-4.9127,-4.9207,-4.9217,-4.9227,-4.9374,-4.9245,-4.9251,-4.9255,-4.9569,-4.9574,-4.9579,0,0,0,0,0,0,-4.8971,-4.899,-4.9144,-4.9069,-4.9088,-4.9098,-4.9145,-4.9144,-4.917,-4.9185,-4.9186,-4.9159,-4.9204,-4.9217,-4.9313,-4.9375,-4.9255,-4.9261,-4.9563,-4.957,-4.9576,-4.9669,0,0,0,0,0,0,-4.8965,-4.8989,-4.9038,-4.9071,-4.9092,-4.9231,-4.9149,-4.9148,-4.9183,-4.9175,-4.9209,-4.9211,-4.9202,-4.9303,-4.932,-4.9383,-4.9266,-4.9558,-4.9566,-4.9574,-4.966,-4.9678,-4.9693,0,0,0,0,0,-4.8957,-4.9059,-4.904,-4.906,-4.9154,-4.9234,-4.9246,-4.9235,-4.9188,-4.9236,-4.9246,-4.921,-4.9366,-4.9313,-4.9331,-4.9398,-4.9554,-4.9564,-4.9574,-4.9653,-4.9674,-4.9692,0,0,0,0,0,0,-4.9031,-4.9063,-4.9043,-4.9159,-4.9195,-4.9224,-4.9284,-4.9259,-4.9307,-4.9297,-4.9279,-4.9288,-4.9388,-4.9402,-4.9343,-4.9519,-4.9452,-4.9466,-4.9506,-4.9526,-4.9542,-4.9536,-4.9272,0,0,0,0,0,-4.9061,-4.9126,-4.915,-4.925,-4.9269,-4.9274,-4.9308,-4.9297,-4.9332,-4.9347,-4.9363,-4.9397,-4.9453,-4.949,-4.9543,-4.9662,-4.9667,-4.9716,-4.9732,-4.9746,-4.9758,-4.982,-4.9841,-4.9611,-4.9611,-4.9611,0,0,-4.9123,-4.9149,-4.9191,-4.9266,-4.9292,-4.9357,-4.9287,-4.9359,-4.9407,-4.9357,-4.9448,-4.9461,-4.9498,-4.9605,-4.9653,-4.962,-4.9823,-4.9758,-4.9769,-4.9774,-4.9832,-4.9854,-4.9873,-4.9618,-4.9617,-4.9616,0,0,-4.927,-4.9297,-4.9383,-4.9411,-4.9452,-4.9454,-4.9475,-4.9508,-4.9515,-4.9607,-4.9571,-4.9626,-4.9724,-4.9751,-4.9778,-4.9934,-4.9902,-4.9952,-5.0037,-5.0097,-5.0115,-5.0131,-5.0186,-5.0206,-4.9964,-4.9964,-4.9964,0,-4.9341,-4.9441,-4.943,-4.9505,-4.9538,-4.9498,-4.9583,-4.961,-4.9666,-4.9689,-4.9651,-4.9773,-4.9795,-4.9907,-4.9945,-4.9969,-4.999,-4.9947,-5.0114,-5.013,-5.0145,-5.0196,-5.0217,-4.997,-4.9969,-4.9968,-4.9968,0,-4.9526,-4.9595,-4.9659,-4.9716,-4.9756,-4.9837,-4.9835,-4.9877,-4.9862,-4.9868,-4.996,-4.9985,-5.0042,-5.0068,-5.0053,-5.0178,-5.0156,-5.0117,-5.0049,-5.0172,-5.0221,-5.024,-4.9978,-4.9976,-4.9974,-4.9973,0,0,-4.9721,-4.9771,-4.9795,-4.9819,-4.9862,-4.9914,-4.9991,-5.0048,-5.0084,-5.0123,-5.0186,-5.027,-5.0234,-5.0264,-5.0252,-5.0306,-5.0426,-5.026,-5.026,-5.0289,-5.0563,-5.0592,-5.0615,-5.0406,-5.041,-5.0413,-5.056,0,-4.9868,-5.0006,-4.9998,-5.0125,-5.0188,-5.015,-5.0217,-5.0249,-5.0256,-5.0309,-5.0315,-5.0375,-5.0323,-5.0341,-5.0393,-5.0401,-5.0481,-5.039,-5.0462,-5.0465,-5.0454,-5.064,-5.0671,-5.0808,-5.0579,-5.0582,-5.0584,0,-5.0059,-5.0108,-5.0242,-5.0275,-5.03,-5.0361,-5.0412,-5.0464,-5.0498,-5.0499,-5.0534,-5.0512,-5.0588,-5.0519,-5.0622,-5.056,-5.0589,-5.0598,-5.0602,-5.0608,-5.0531,-5.0649,-5.0852,-5.0872,-5.0614,-5.0612,-5.0609,0,-5.0187,-5.0285,-5.0378,-5.04,-5.0441,-5.0484,-5.0502,-5.0533,-5.0568,-5.0612,-5.0634,-5.0685,-5.0713,-5.0753,-5.0745,-5.0696,-5.0849,-5.078,-5.085,-5.0851,-5.0883,-5.0881,-5.1092,-5.0904,-5.0904,-5.0903,-5.0903,0,-5.0352,-5.0435,-5.0436,-5.0493,-5.0584,-5.0573,-5.0663,-5.0676,-5.0704,-5.0761,-5.0731,-5.0785,-5.0772,-5.0825,-5.0819,-5.0904,-5.0917,-5.0919,-5.0916,-5.0921,-5.0921,-5.0939,-5.0928,-5.0909,-5.0908,-5.0907,-5.0906,0,-5.0509,-5.0513,-5.0612,-5.0642,-5.0652,-5.0718,-5.0743,-5.0795,-5.08,-5.0873,-5.0889,-5.0895,-5.0956,-5.0953,-5.102,-5.1016,-5.1121,-5.1107,-5.111,-5.1107,-5.1176,-5.1169,-5.1405,-5.1435,-5.1229,-5.1231,-5.1232,0,-5.0614,-5.0678,-5.0716,-5.0753,-5.0775,-5.0835,-5.087,-5.0861,-5.0899,-5.0943,-5.099,-5.1048,-5.1094,-5.1192,-5.1201,-5.1253,-5.1239,-5.1319,-5.1247,-5.1249,-5.1239,-5.1235,-5.124,-5.1332,-5.1335,-5.1336,-5.1338,0,-5.0799,-5.0798,-5.0852,-5.0907,-5.095,-5.0992,-5.103,-5.1062,-5.1056,-5.11,-5.1163,-5.1199,-5.1269,-5.1326,-5.1375,-5.1391,-5.1363,-5.1361,-5.1379,-5.1385,-5.1383,-5.1384,-5.1147,-5.1355,-5.1353,-5.1352,-5.1351,-5.1351,-5.0933,-5.0987,-5.1023,-5.1083,-5.1111,-5.1148,-5.1199,-5.121,-5.1263,-5.1321,-5.1311,-5.1381,-5.1412,-5.1475,-5.1496,-5.1549,-5.152,-5.1547,-5.1554,-5.1561,-5.1568,-5.1376,-5.1558,-5.1557,-5.1557,-5.1556,-5.1556,0,-5.1115,-5.1136,-5.1192,-5.1248,-5.1295,-5.1267,-5.1308,-5.1348,-5.1411,-5.1443,-5.1489,-5.156,-5.1616,-5.163,-5.1682,-5.1721,-5.171,-5.1735,-5.1732,-5.1736,-5.1591,-5.157,-5.1744,-5.1744,-5.1744,-5.1744,-5.1744,-5.1744,-5.1216,-5.1306,-5.1309,-5.1412,-5.1431,-5.1501,-5.1527,-5.1559,-5.1585,-5.1667,-5.1713,-5.1723,-5.1747,-5.1801,-5.185,-5.1852,-5.1872,-5.1903,-5.19,-5.1765,-5.1746,-5.1728,-5.1707,-5.1908,-5.1908,-5.2039,-5.2041,-5.2042]}]]